Fresno, CA

3:40 AM PST on December 11, 2017 (GMT -0800)
Fresno Yosemite International

Weather History for KFAT - November, 2013

Change the Weather History Date:

Monday, November 4, 2013

  Actual Average Record
Temperature  
Mean Temperature 55 °F 59 °F  
Max Temperature 65 °F 71 °F 86 °F (1931)
Min Temperature 45 °F 47 °F 30 °F (1973)
Degree Days  
Heating Degree Days 10    
Month to date heating degree days 20  
Since 1 July heating degree days 52  
Cooling Degree Days 0    
Month to date cooling degree days 0  
Year to date cooling degree days 2625  
Growing Degree Days 4 (Base 50)    
Moisture  
Dew Point 32 °F    
Average Humidity 43    
Maximum Humidity 58    
Minimum Humidity 28    
Precipitation  
Precipitation 0.00 in 0.04 in 0.64 in (1906)
Month to date precipitation 0.00 0.13  
Year to date precipitation 2.32 8.79  
Since 1 July precipitation 0.04  
Snow  
Snow 0.00 in - - ()
Month to date snowfall 0.0  
Since 1 July snowfall 0.0  
Since 1 September snowfall 0.0  
Snow Depth 0.00 in    
Sea Level Pressure  
Sea Level Pressure 29.95 in    
Wind  
Wind Speed 4 mph (WNW)    
Max Wind Speed 10 mph    
Max Gust Speed 16 mph    
Visibility 10 miles    
Events      
T = Trace of Precipitation, MM = Missing Value Source: NWS Daily Summary

Daily Weather History Graph

Daily Weather History Graph

Search for Another Location

Airport or City:

Trip Planner

Search our weather history database for the weather conditions in past years. The results will help you decide how hot, cold, wet, or windy it might be!

Date:

Astronomy

Nov. 04, 2013 Rise Set
Actual Time 6:25 AM PST 4:58 PM PST
Civil Twilight 5:58 AM PST 5:25 PM PST
Nautical Twilight 5:28 AM PST 5:56 PM PST
Astronomical Twilight 4:57 AM PST 6:26 PM PST
Moon 7:40 AM PST (11/4) 6:09 PM PST (11/4)
Length of Visible Light 11h 26m
Length of Day
10h 32m
New Moon, 2% of the Moon is Illuminated
Nov 4
New Moon
Nov 9
First Quarter
Nov 17
Full
Nov 25
Last Quarter
Dec 2
New

Hourly Weather History & Observations

Time (PST) Temp. Windchill Dew Point Humidity Pressure Visibility Wind Dir Wind Speed Gust Speed Precip Events Conditions
12:53 AM 52.0 °F - 30.0 °F 43% 29.90 in 10.0 mi WNW 5.8 mph - N/A   Overcast
1:53 AM 52.0 °F - 30.0 °F 43% 29.89 in 10.0 mi NNW 6.9 mph - N/A   Overcast
2:53 AM 50.0 °F - 30.9 °F 48% 29.89 in 10.0 mi WNW 5.8 mph - N/A   Overcast
3:53 AM 48.9 °F - 30.9 °F 50% 29.88 in 10.0 mi WNW 6.9 mph - N/A   Overcast
4:53 AM 48.0 °F - 32.0 °F 54% 29.89 in 10.0 mi West 3.5 mph - N/A   Scattered Clouds
5:53 AM 46.0 °F 44.8 °F 32.0 °F 58% 29.90 in 10.0 mi WNW 3.5 mph - N/A   Scattered Clouds
6:53 AM 46.0 °F - 32.0 °F 58% 29.93 in 10.0 mi Calm Calm - N/A   Scattered Clouds
7:53 AM 50.0 °F - 32.0 °F 50% 29.96 in 10.0 mi WNW 5.8 mph - N/A   Partly Cloudy
8:53 AM 52.0 °F - 30.9 °F 45% 29.96 in 10.0 mi WNW 9.2 mph - N/A   Scattered Clouds
9:53 AM 55.0 °F - 30.9 °F 40% 29.96 in 10.0 mi Calm Calm - N/A   Partly Cloudy
10:53 AM 59.0 °F - 30.9 °F 35% 29.97 in 10.0 mi NW 4.6 mph - N/A   Partly Cloudy
11:53 AM 60.1 °F - 30.0 °F 32% 29.95 in 10.0 mi Variable 3.5 mph - N/A   Partly Cloudy
12:53 PM 62.1 °F - 30.0 °F 30% 29.93 in 10.0 mi Variable 3.5 mph - N/A   Partly Cloudy
1:53 PM 64.9 °F - 30.0 °F 27% 29.93 in 10.0 mi WNW 4.6 mph - N/A   Partly Cloudy
2:53 PM 64.9 °F - 30.0 °F 27% 29.93 in 10.0 mi Variable 3.5 mph - N/A   Partly Cloudy
3:53 PM 64.0 °F - 30.0 °F 28% 29.94 in 10.0 mi WNW 3.5 mph - N/A   Scattered Clouds
4:53 PM 63.0 °F - 30.0 °F 29% 29.95 in 10.0 mi Calm Calm - N/A   Partly Cloudy
5:53 PM 59.0 °F - 30.9 °F 35% 29.98 in 10.0 mi WNW 5.8 mph - N/A   Clear
6:53 PM 60.1 °F - 32.0 °F 35% 30.00 in 10.0 mi Calm Calm - N/A   Clear
7:53 PM 54.0 °F - 34.0 °F 47% 30.00 in 10.0 mi ESE 3.5 mph - N/A   Clear
8:53 PM 53.1 °F - 33.1 °F 47% 30.01 in 10.0 mi East 3.5 mph - N/A   Clear
9:53 PM 52.0 °F - 34.0 °F 50% 30.04 in 10.0 mi Calm Calm - N/A   Clear
10:53 PM 50.0 °F - 35.1 °F 57% 30.05 in 10.0 mi SSE 3.5 mph - N/A   Clear
11:53 PM 48.9 °F - 35.1 °F 59% 30.05 in 10.0 mi ESE 6.9 mph - N/A   Clear